Wind_Speed
26 27 27 28 28 29 30 31 32 33 35 36 37 38 38 38 38 39 40 40 40 40 41 41 43 44 44 44 44 44 45 45 44 44 45 45 45 44 44 44 44 43 43 43
25 25 25 26 26 27 28 31 32 33 34 35 37 38 38 38 38 39 39 40 40 41 41 42 42 44 45 45 45 45 45 45 45 46 46 47 47 47 46 46 46 46 45 45
23 23 23 24 25 26 27 29 30 32 33 35 36 37 36 37 37 37 38 40 40 40 40 41 42 43 44 45 45 45 47 47 47 48 48 49 49 49 48 47 47 47 47 47
23 23 24 24 24 26 26 27 29 30 32 33 33 35 34 35 35 36 37 38 39 40 40 41 41 41 43 45 44 45 46 48 48 48 49 50 50 50 50 50 50 48 49 49
23 24 24 24 24 26 27 27 28 29 30 32 31 33 32 32 34 34 35 37 39 39 40 41 40 41 41 43 44 44 45 46 47 47 48 49 50 51 51 52 52 51 51 51
24 25 25 25 25 26 27 27 28 29 30 31 30 32 32 31 32 33 34 35 37 38 40 40 40 41 41 42 43 44 44 45 46 47 48 49 49 50 51 51 52 52 52 52
25 25 26 26 26 26 27 28 29 30 31 31 31 32 33 32 32 32 33 34 36 37 38 40 41 41 41 42 42 44 44 45 46 47 47 48 49 49 50 51 52 53 52 52
26 26 26 26 26 27 27 28 29 31 32 32 32 33 33 33 32 33 34 35 36 37 38 39 40 41 41 43 43 44 45 45 46 47 48 48 49 49 50 51 52 53 54 53
26 26 26 26 26 27 27 28 29 31 33 34 34 34 33 33 33 33 35 36 36 37 37 38 38 40 41 42 44 44 45 46 45 45 47 48 49 49 49 50 51 52 53 54
27 28 27 27 27 27 28 28 29 30 33 35 35 35 34 33 34 34 35 36 36 36 37 37 38 39 41 43 44 45 46 46 46 46 47 48 50 50 50 51 51 51 51 52
28 28 28 29 29 28 29 29 30 32 33 36 37 35 34 34 35 35 36 37 37 37 37 38 40 41 42 43 45 46 46 47 48 48 48 48 49 51 51 51 51 51 51 52
28 29 30 29 30 29 30 31 32 33 34 35 37 36 34 34 35 36 36 36 37 37 37 38 39 41 42 43 44 46 47 48 49 49 50 50 50 50 51 51 51 52 52 52
29 29 30 30 30 30 31 32 33 34 35 35 36 35 35 35 36 36 37 36 37 37 37 37 39 40 41 42 44 45 46 46 47 49 50 50 50 50 51 52 52 52 52 52
32 31 31 32 32 32 32 33 34 34 35 36 36 36 35 36 36 37 37 37 38 38 38 38 39 40 41 42 43 44 45 45 46 48 49 50 50 50 51 52 53 53 53 53
33 34 34 34 34 34 35 35 35 35 35 37 37 37 36 36 37 38 38 39 39 39 39 39 39 40 41 42 43 44 45 45 46 47 48 48 49 50 51 51 52 53 53 53
35 36 36 35 35 35 36 36 36 36 36 37 38 37 36 38 38 38 39 39 39 39 39 39 40 40 41 42 43 44 45 45 46 47 47 47 48 49 50 50 50 51 52 53
35 37 37 37 37 37 37 36 36 36 36 37 38 37 37 38 38 39 40 40 39 39 40 40 40 41 41 42 42 43 44 45 45 46 46 46 47 47 48 48 49 50 50 51
36 37 38 39 38 38 38 37 37 37 37 39 39 38 39 40 39 39 40 40 41 41 40 40 41 41 40 41 42 43 44 45 46 46 46 46 46 47 47 47 48 48 49 49
36 37 38 39 40 40 39 38 39 39 39 39 39 40 40 40 40 39 40 40 41 41 41 41 41 41 41 41 42 43 44 45 45 45 45 46 46 47 47 47 48 48 48 49
37 38 39 39 40 39 39 39 39 40 40 39 40 40 40 40 41 39 40 41 41 41 41 40 40 40 41 41 41 43 44 44 44 43 43 44 45 46 47 47 48 48 48 48
38 38 38 39 40 39 39 39 39 40 40 40 40 41 41 41 41 41 41 41 41 41 41 40 40 40 40 40 40 41 41 42 42 42 42 42 43 44 45 46 47 48 48 48
38 39 40 40 40 39 39 39 39 40 41 41 41 41 41 41 41 41 40 41 41 41 41 41 40 40 40 40 40 40 40 39 40 40 40 41 42 43 44 45 46 46 47 48
39 39 40 40 40 40 40 40 41 42 42 42 42 42 42 41 41 40 40 41 41 40 40 40 40 40 40 39 39 39 38 38 38 39 40 41 42 43 44 44 45 45 45 46
39 40 41 41 41 41 41 41 42 42 42 42 42 42 42 42 41 40 40 41 41 40 40 40 39 39 39 39 39 38 38 38 39 39 39 40 41 41 42 42 43 43 44 44
39 40 41 41 41 41 41 42 42 42 42 42 43 43 42 42 41 41 40 40 40 40 40 39 38 39 39 39 39 39 38 38 39 39 39 39 39 39 39 40 40 41 41 42
39 40 41 41 41 41 41 42 42 42 42 42 43 43 43 43 42 42 41 41 41 41 40 40 39 39 39 39 39 38 38 38 39 39 39 38 38 38 38 38 38 39 40 41
Wind_Direction
284 283 281 278 276 275 274 274 274 272 270 269 267 266 265 264 264 263 263 261 261 262 261 259 258 256 255 255 255 256 257 257 257 256 255 256 256 257 256 256 257 257 258 257
286 286 285 282 279 279 278 278 277 275 274 272 269 268 267 266 265 264 264 263 263 262 262 261 259 257 255 255 255 255 256 257 257 256 255 256 258 257 256 256 257 257 258 259
291 291 287 284 282 281 281 281 280 279 277 274 273 270 268 267 267 265 264 264 264 265 264 263 261 259 256 256 256 255 257 257 257 257 255 256 257 258 258 257 257 257 258 258
292 291 287 285 284 283 283 283 282 280 279 277 276 274 271 270 269 268 267 266 266 265 264 264 262 261 258 257 257 257 257 258 258 257 256 256 257 257 258 258 258 257 257 258
293 293 289 285 285 284 284 285 284 283 281 279 278 278 275 273 271 271 270 269 267 266 266 265 264 262 261 259 258 258 258 258 259 258 258 257 257 257 258 258 258 257 257 257
292 293 292 289 287 286 285 285 285 284 282 281 281 281 279 277 276 275 275 274 272 270 269 267 266 264 262 260 259 259 259 259 259 259 258 258 258 258 258 258 258 258 257 257
292 293 292 291 288 286 286 287 288 286 285 285 285 284 284 282 280 279 278 276 274 273 272 269 267 266 264 262 261 260 259 259 259 259 259 259 258 259 259 259 259 258 258 258
293 293 293 292 290 287 286 288 290 289 289 289 288 287 287 286 284 282 281 279 277 275 273 272 269 267 266 264 262 261 260 260 260 261 260 260 259 260 261 261 259 258 258 258
296 295 295 294 292 290 289 289 291 291 290 290 290 291 290 289 287 285 284 283 281 278 275 274 272 268 266 265 262 261 262 261 261 262 262 262 261 261 261 261 260 260 259 259
296 296 295 294 292 292 293 294 294 292 292 293 294 295 294 292 291 289 286 284 283 280 277 275 273 270 267 266 264 263 263 263 262 263 263 262 262 261 261 261 261 261 260 260
297 297 296 294 293 293 292 293 293 293 293 294 295 296 297 295 293 290 287 285 283 282 278 275 273 271 269 267 265 264 264 263 263 263 263 263 262 261 261 261 261 261 261 260
298 296 295 295 294 293 293 293 293 293 294 294 296 297 297 295 294 292 289 286 284 283 281 277 274 272 270 268 267 265 264 264 263 263 263 263 263 262 262 261 261 261 261 261
297 297 296 295 294 294 292 292 292 292 292 293 295 298 297 294 293 292 291 288 286 284 282 279 276 273 271 270 269 267 266 265 265 264 264 264 264 263 262 262 261 261 261 262
294 294 295 295 295 294 292 292 292 293 293 294 295 296 294 293 292 291 290 289 287 285 283 281 278 275 272 272 271 269 267 266 266 265 265 265 264 263 263 262 262 261 261 261
294 293 293 293 293 293 292 292 292 292 293 294 295 294 295 293 292 292 290 289 288 286 284 282 280 278 274 273 272 271 269 268 267 266 265 265 264 263 263 263 263 262 261 261
294 293 293 293 293 292 291 292 292 293 294 294 294 294 295 293 292 291 290 289 288 286 284 283 282 280 278 275 273 272 270 269 268 267 266 266 265 264 264 263 263 262 262 262
294 294 293 293 293 291 291 294 294 293 293 293 293 295 293 293 293 291 289 287 286 285 285 284 282 282 280 277 274 273 271 270 270 269 268 267 267 266 265 265 264 263 263 263
294 294 293 293 292 290 295 294 293 293 293 293 293 293 293 293 292 290 289 287 286 286 286 285 284 282 281 279 275 273 272 272 271 271 270 269 268 267 267 266 266 265 264 263
292 292 293 293 292 292 292 294 295 295 294 294 294 293 292 292 291 290 290 289 288 288 287 287 285 283 281 279 277 275 275 275 274 273 272 270 269 268 267 267 266 266 265 264
291 291 292 293 292 294 295 296 296 295 295 296 294 293 293 293 291 291 289 289 289 289 288 287 286 284 283 282 280 279 277 276 275 274 272 271 270 269 268 268 267 266 266 265
292 291 291 291 292 293 296 297 297 297 299 298 296 295 295 294 293 292 291 290 290 290 289 287 286 285 284 283 282 281 280 278 277 275 273 272 271 270 270 269 269 268 267 266
293 292 292 292 292 295 296 296 296 297 297 297 297 295 294 293 293 292 291 291 291 290 290 288 286 285 285 284 283 282 281 279 277 276 274 273 272 271 271 271 270 269 268 266
293 293 293 292 293 293 293 293 294 295 295 296 296 295 294 293 293 292 292 292 291 290 290 289 287 286 285 284 283 282 280 279 278 277 275 275 274 274 273 272 271 270 269 267
294 293 292 291 292 292 292 293 295 295 295 295 295 295 294 294 293 292 293 293 291 290 289 288 288 287 286 285 283 281 280 279 279 278 278 276 275 275 274 273 272 270 269 269
293 292 292 292 293 291 292 293 295 295 295 295 295 296 295 294 293 292 293 293 292 290 289 288 287 287 286 285 283 281 281 281 280 279 278 277 276 275 274 274 273 271 270 269
292 291 292 293 293 292 293 293 294 295 295 296 296 296 295 294 292 292 293 292 291 289 287 286 286 287 287 285 284 282 282 281 281 280 278 277 276 276 275 274 273 273 272 271
Height
5713 5712 5710 5709 5707 5706 5704 5704 5703 5702 5701 5700 5699 5699 5700 5700 5700 5701 5701 5702 5703 5703 5704 5704 5705 5706 5708 5709 5711 5712 5713 5714 5715 5716 5717 5718 5719 5721 5722 5723 5724 5726 5727 5728
5706 5704 5703 5700 5699 5698 5696 5695 5694 5693 5692 5690 5689 5689 5689 5689 5690 5690 5691 5691 5692 5692 5693 5693 5693 5694 5696 5697 5699 5700 5701 5702 5703 5705 5705 5707 5708 5709 5711 5712 5713 5715 5716 5717
5699 5698 5695 5693 5691 5690 5689 5687 5686 5684 5682 5680 5679 5679 5679 5680 5679 5679 5680 5680 5680 5681 5681 5682 5682 5683 5684 5685 5687 5688 5689 5690 5691 5692 5693 5694 5696 5697 5699 5700 5701 5703 5704 5705
5693 5691 5689 5687 5685 5683 5682 5680 5678 5675 5673 5671 5671 5668 5671 5670 5670 5670 5670 5670 5670 5670 5670 5670 5671 5672 5672 5674 5674 5676 5676 5677 5678 5679 5680 5682 5683 5685 5686 5688 5689 5690 5691 5693
5687 5684 5682 5680 5678 5676 5675 5673 5670 5668 5665 5663 5662 5660 5662 5661 5661 5661 5660 5659 5659 5659 5659 5659 5659 5660 5661 5662 5662 5663 5664 5665 5665 5666 5667 5668 5670 5672 5673 5674 5675 5677 5678 5680
5681 5678 5675 5673 5671 5669 5667 5665 5663 5660 5657 5656 5655 5652 5652 5653 5652 5651 5650 5649 5648 5648 5647 5647 5647 5648 5648 5649 5650 5650 5651 5652 5653 5653 5654 5655 5656 5658 5659 5660 5662 5663 5665 5666
5674 5672 5669 5667 5664 5663 5660 5658 5655 5652 5649 5648 5647 5644 5644 5643 5643 5641 5640 5638 5637 5637 5636 5635 5635 5635 5636 5637 5637 5638 5639 5640 5640 5641 5641 5642 5643 5644 5646 5646 5648 5649 5650 5652
5667 5666 5663 5660 5658 5655 5653 5651 5648 5645 5642 5640 5638 5636 5637 5635 5633 5631 5630 5628 5627 5625 5624 5623 5623 5623 5623 5624 5624 5625 5626 5627 5627 5628 5628 5629 5630 5631 5632 5632 5633 5634 5636 5637
5660 5658 5656 5653 5650 5648 5645 5643 5641 5637 5633 5631 5630 5628 5627 5625 5623 5621 5619 5617 5616 5614 5613 5612 5611 5611 5611 5611 5611 5612 5613 5614 5614 5615 5615 5616 5616 5617 5618 5618 5619 5620 5621 5622
5653 5651 5649 5646 5643 5641 5639 5636 5633 5629 5625 5622 5621 5619 5618 5615 5613 5611 5609 5606 5604 5603 5602 5600 5599 5598 5598 5598 5598 5599 5599 5600 5601 5601 5602 5602 5603 5603 5604 5604 5605 5606 5607 5607
5646 5644 5641 5639 5636 5634 5631 5628 5624 5621 5617 5614 5611 5613 5609 5606 5603 5600 5598 5595 5593 5592 5590 5589 5587 5586 5585 5585 5585 5585 5586 5586 5587 5587 5588 5588 5588 5589 5589 5590 5591 5591 5592 5593
5639 5635 5633 5631 5628 5625 5623 5620 5617 5614 5610 5606 5602 5605 5600 5596 5592 5589 5587 5585 5583 5581 5579 5577 5575 5574 5573 5572 5572 5572 5572 5572 5573 5573 5573 5574 5574 5574 5574 5575 5576 5577 5577 5578
5631 5628 5625 5622 5622 5618 5614 5612 5608 5605 5601 5597 5594 5596 5590 5587 5583 5579 5577 5574 5572 5569 5567 5565 5563 5561 5560 5559 5559 5558 5558 5558 5558 5558 5559 5559 5559 5559 5559 5560 5561 5562 5562 5563
5622 5619 5617 5615 5611 5608 5605 5603 5599 5595 5591 5589 5587 5585 5582 5576 5572 5569 5566 5563 5560 5558 5555 5553 5551 5549 5548 5546 5545 5544 5544 5544 5544 5544 5544 5544 5544 5544 5544 5545 5545 5546 5547 5548
5613 5611 5608 5605 5602 5599 5596 5593 5590 5586 5583 5579 5577 5574 5572 5566 5562 5559 5555 5552 5549 5546 5543 5540 5538 5537 5535 5534 5532 5531 5531 5530 5530 5529 5529 5529 5529 5529 5529 5529 5529 5530 5531 5532
5603 5600 5598 5596 5593 5589 5585 5583 5580 5576 5573 5569 5566 5563 5561 5556 5551 5547 5544 5540 5537 5534 5531 5529 5526 5524 5522 5521 5519 5518 5518 5517 5516 5515 5515 5514 5514 5514 5514 5514 5514 5515 5515 5516
5594 5591 5587 5585 5582 5578 5575 5575 5570 5567 5563 5559 5555 5554 5549 5545 5541 5536 5533 5529 5526 5523 5520 5517 5515 5512 5510 5508 5507 5505 5504 5503 5502 5501 5500 5500 5499 5499 5499 5499 5499 5500 5500 5500
5585 5581 5576 5573 5571 5566 5569 5564 5560 5556 5553 5548 5544 5541 5538 5534 5530 5525 5522 5518 5515 5512 5509 5506 5503 5500 5498 5496 5494 5493 5491 5490 5489 5487 5486 5486 5485 5485 5485 5485 5485 5485 5485 5485
5575 5571 5566 5562 5558 5555 5556 5553 5548 5544 5542 5538 5534 5530 5526 5522 5518 5516 5511 5507 5503 5500 5497 5494 5491 5488 5486 5484 5482 5480 5478 5476 5475 5473 5472 5471 5471 5471 5470 5470 5470 5470 5470 5470
5564 5560 5557 5552 5547 5544 5546 5542 5537 5533 5530 5528 5522 5518 5514 5510 5507 5505 5500 5496 5492 5488 5485 5482 5479 5476 5473 5471 5469 5466 5465 5463 5461 5460 5459 5457 5457 5456 5456 5456 5455 5455 5455 5455
5554 5550 5546 5541 5536 5534 5534 5530 5525 5522 5520 5515 5510 5506 5502 5498 5495 5492 5488 5484 5480 5476 5473 5469 5466 5464 5461 5458 5456 5453 5451 5449 5448 5447 5445 5444 5443 5442 5442 5441 5441 5440 5440 5441
5543 5539 5535 5531 5526 5526 5522 5518 5515 5511 5507 5502 5498 5494 5490 5486 5482 5479 5475 5471 5467 5464 5460 5457 5454 5451 5448 5446 5443 5441 5438 5437 5435 5434 5432 5431 5430 5429 5428 5427 5426 5426 5425 5425
5532 5529 5524 5521 5519 5515 5510 5507 5503 5499 5495 5490 5486 5482 5478 5474 5470 5467 5463 5459 5455 5452 5448 5444 5441 5438 5436 5433 5430 5428 5426 5424 5423 5421 5419 5418 5417 5415 5414 5413 5412 5411 5411 5410
5521 5517 5512 5509 5507 5503 5499 5495 5491 5487 5483 5478 5474 5470 5466 5462 5458 5454 5450 5447 5443 5439 5435 5432 5429 5426 5423 5420 5418 5415 5413 5412 5410 5408 5406 5405 5403 5402 5400 5399 5398 5398 5397 5396
5510 5505 5501 5498 5496 5492 5488 5484 5479 5475 5471 5466 5462 5458 5453 5449 5445 5442 5438 5434 5430 5426 5423 5420 5417 5414 5411 5408 5405 5403 5401 5399 5397 5395 5393 5392 5390 5388 5387 5386 5385 5384 5383 5383
5499 5494 5490 5487 5484 5480 5477 5472 5468 5463 5459 5455 5450 5446 5441 5437 5433 5429 5425 5421 5417 5414 5410 5407 5404 5401 5399 5396 5393 5391 5388 5386 5384 5383 5381 5379 5377 5375 5374 5373 5372 5371 5370 5369